Glendale Luke AFB, AZ

2:42 PM MST on March 23, 2017 (GMT -0700)
Luke Air Force Base

Weather History for KLUF - July, 2013

Change the Weather History Date:

Sunday, July 28, 2013

  Actual Average Record
Temperature  
Mean Temperature 96 °F -  
Max Temperature 106 °F 108 °F 115 °F (1972)
Min Temperature 87 °F 75 °F 63 °F (1986)
Cooling Degree Days 32    
Growing Degree Days 46 (Base 50)    
Moisture  
Dew Point 56 °F    
Average Humidity 27    
Maximum Humidity 47    
Minimum Humidity 14    
Precipitation  
Precipitation 0.00 in - - ()
Sea Level Pressure  
Sea Level Pressure 29.71 in    
Wind  
Wind Speed 8 mph (SSW)    
Max Wind Speed 16 mph    
Max Gust Speed 24 mph    
Visibility 10 miles    
Events      
Averages and records for this station are not official NWS values.
T = Trace of Precipitation, MM = Missing Value Source: NWS Daily Summary

Daily Weather History Graph

Daily Weather History Graph

Search for Another Location

Airport or City:

Trip Planner

Search our weather history database for the weather conditions in past years. The results will help you decide how hot, cold, wet, or windy it might be!

Date:

Astronomy

Jul. 28, 2013 Rise Set
Actual Time 5:39 AM MST 7:32 PM MST
Civil Twilight 5:11 AM MST 7:59 PM MST
Nautical Twilight 4:38 AM MST 8:32 PM MST
Astronomical Twilight 4:03 AM MST 9:08 PM MST
Moon 11:20 PM MST (7/28) 12:02 PM MST (7/28)
Length of Visible Light 14h 47m
Length of Day
13h 52m
Waning Gibbous, 60% of the Moon is Illuminated
Jul 28
Waning Gibbous
Jul 29
Last Quarter
Aug 6
New
Aug 14
First Quarter
Aug 20
Full

Hourly Weather History & Observations

Time (MST) Temp. Heat Index Dew Point Humidity Pressure Visibility Wind Dir Wind Speed Gust Speed Precip Events Conditions
12:58 AM 93.0 °F 95.0 °F 64.8 °F 39% 29.72 in 10.0 mi NE 10.4 mph - N/A   Clear
1:58 AM 91.6 °F 92.7 °F 63.7 °F 39% 29.73 in 10.0 mi SE 2.3 mph - N/A   Clear
2:58 AM 90.7 °F 92.1 °F 64.2 °F 41% 29.73 in 10.0 mi NNE 2.3 mph - N/A   Scattered Clouds
3:58 AM 88.0 °F 89.0 °F 63.5 °F 44% 29.73 in 10.0 mi ENE 3.5 mph - N/A   Clear
4:58 AM 87.3 °F 88.9 °F 64.9 °F 47% 29.73 in 10.0 mi NNE 3.5 mph - N/A   Partly Cloudy
5:58 AM 88.0 °F 87.9 °F 61.2 °F 40% 29.74 in 10.0 mi SSE 2.3 mph - N/A   Partly Cloudy
6:58 AM 87.3 °F 88.6 °F 64.4 °F 46% 29.75 in 10.0 mi East 2.3 mph - N/A   Clear
7:58 AM 89.2 °F 91.3 °F 65.1 °F 45% 29.78 in 10.0 mi Variable 1.2 mph - N/A   Clear
8:58 AM 92.7 °F 94.4 °F 64.2 °F 39% 29.77 in 10.0 mi Variable 2.3 mph - N/A   Clear
9:58 AM 96.6 °F 95.2 °F 56.8 °F 26% 29.77 in 10.0 mi SE 6.9 mph - N/A   Clear
10:58 AM 98.4 °F 97.3 °F 56.5 °F 25% 29.76 in 10.0 mi South 8.1 mph - N/A   Clear
11:58 AM 101.3 °F 100.1 °F 55.2 °F 22% 29.75 in 10.0 mi Variable 6.9 mph - N/A   Clear
12:58 PM 102.2 °F 100.9 °F 55.6 °F 21% 29.72 in 10.0 mi South 16.1 mph - N/A   Clear
1:58 PM 104.5 °F - 51.3 °F 17% 29.70 in 10.0 mi South 13.8 mph 18.4 mph N/A   Clear
2:17 PM 105.8 °F - 51.8 °F 17% 29.75 in 10.0 mi South 11.5 mph 21.9 mph N/A   Clear
2:26 PM 105.8 °F - 50.0 °F 15% 29.74 in 10.0 mi WSW 13.8 mph 19.6 mph N/A   Clear
2:58 PM 106.2 °F - 50.2 °F 15% 29.68 in 10.0 mi SW 10.4 mph 24.2 mph N/A   Clear
3:58 PM 106.7 °F - 50.0 °F 15% 29.66 in 10.0 mi South 10.4 mph - N/A   Clear
4:45 PM 105.8 °F - 48.2 °F 14% 29.70 in 10.0 mi SW 16.1 mph 18.4 mph N/A   Clear
4:58 PM 106.5 °F - 48.6 °F 14% 29.64 in 10.0 mi SSW 13.8 mph 21.9 mph N/A   Clear
5:58 PM 105.4 °F - 49.6 °F 15% 29.63 in 10.0 mi SW 11.5 mph - N/A   Clear
6:58 PM 103.6 °F - 51.4 °F 17% 29.64 in 10.0 mi WSW 10.4 mph - N/A   Clear
7:58 PM 100.2 °F - 50.2 °F 18% 29.65 in 10.0 mi SW 9.2 mph - N/A   Clear
8:58 PM 97.9 °F - 49.8 °F 20% 29.68 in 10.0 mi SW 10.4 mph - N/A   Clear
9:58 PM 95.7 °F - 49.5 °F 21% 29.70 in 10.0 mi SSW 11.5 mph - N/A   Clear
10:58 PM 93.9 °F 91.4 °F 53.6 °F 25% 29.71 in 10.0 mi SW 11.5 mph - N/A   Clear
11:58 PM 90.9 °F 88.7 °F 54.7 °F 29% 29.72 in 10.0 mi WSW 10.4 mph - N/A   Clear